Time,TemperatureF,DewpointF,PressureIn,WindDirection,WindDirectionDegrees,WindSpeedMPH,WindSpeedGustMPH,Humidity,HourlyPrecipIn,Conditions,Clouds,dailyrainin,SoftwareType,DateUTC
2011-02-25 00:03:00,35.8,22.5,29.84,WSW,247,2.5,2.5,58,0.00,,,0.00,open2300-1.11,2011-02-25 07:03:00,
2011-02-25 00:13:00,37.0,23.2,29.84,SW,225,5.1,8.7,57,0.00,,,0.00,open2300-1.11,2011-02-25 07:13:00,
2011-02-25 00:23:00,37.6,23.2,29.85,WSW,247,0.0,5.4,56,0.00,,,0.00,open2300-1.11,2011-02-25 07:23:00,
2011-02-25 00:33:00,37.8,23.4,29.85,West,270,5.8,6.0,56,0.00,,,0.00,open2300-1.11,2011-02-25 07:33:00,
2011-02-25 00:43:00,37.9,23.6,29.85,SW,225,0.0,5.8,56,0.00,,,0.00,open2300-1.11,2011-02-25 07:43:00,
2011-02-25 00:53:00,37.9,23.6,29.85,West,270,0.0,1.3,56,0.00,,,0.00,open2300-1.11,2011-02-25 07:53:00,
2011-02-25 01:03:00,37.8,23.8,29.84,WSW,247,0.0,4.5,57,0.00,,,0.00,open2300-1.11,2011-02-25 08:03:00,
2011-02-25 01:13:00,37.8,24.3,29.85,SW,225,1.8,1.8,58,0.00,,,0.00,open2300-1.11,2011-02-25 08:13:00,
2011-02-25 01:23:00,37.6,24.1,29.85,WSW,247,0.0,4.9,58,0.00,,,0.00,open2300-1.11,2011-02-25 08:23:00,
2011-02-25 01:33:00,37.4,24.4,29.85,WNW,292,0.0,1.3,59,0.00,,,0.00,open2300-1.11,2011-02-25 08:33:00,
2011-02-25 01:43:00,37.2,24.2,29.85,West,270,3.6,5.8,59,0.00,,,0.00,open2300-1.11,2011-02-25 08:43:00,
2011-02-25 01:53:00,37.2,24.2,29.85,WSW,247,2.0,3.6,59,0.00,,,0.00,open2300-1.11,2011-02-25 08:53:00,
2011-02-25 02:03:00,37.2,24.6,29.84,NW,315,0.0,3.8,60,0.00,,,0.00,open2300-1.11,2011-02-25 09:03:00,
2011-02-25 02:13:00,36.9,24.7,29.84,West,270,0.0,0.9,61,0.00,,,0.00,open2300-1.11,2011-02-25 09:13:00,
2011-02-25 02:23:00,36.7,24.5,29.84,NNW,337,0.9,0.9,61,0.00,,,0.00,open2300-1.11,2011-02-25 09:23:00,
2011-02-25 02:33:00,36.5,24.4,29.84,WSW,247,0.0,0.9,61,0.00,,,0.00,open2300-1.11,2011-02-25 09:33:00,
2011-02-25 02:43:00,36.3,24.2,29.84,WSW,247,0.0,0.0,61,0.00,,,0.00,open2300-1.11,2011-02-25 09:43:00,
2011-02-25 02:53:00,36.3,24.2,29.84,ENE,67,0.0,0.4,61,0.00,,,0.00,open2300-1.11,2011-02-25 09:53:00,
2011-02-25 03:03:00,36.0,23.9,29.84,ENE,67,2.0,2.2,61,0.00,,,0.00,open2300-1.11,2011-02-25 10:03:00,
2011-02-25 03:13:00,36.0,24.2,29.84,NE,45,0.0,2.0,62,0.00,,,0.00,open2300-1.11,2011-02-25 10:13:00,
2011-02-25 03:23:00,35.8,24.1,29.84,NE,45,0.0,0.0,62,0.00,,,0.00,open2300-1.11,2011-02-25 10:23:00,
2011-02-25 03:33:00,35.4,23.4,29.84,NE,45,0.0,0.0,61,0.00,,,0.00,open2300-1.11,2011-02-25 10:33:00,
2011-02-25 03:43:00,35.2,23.5,29.84,East,90,0.0,1.1,62,0.00,,,0.00,open2300-1.11,2011-02-25 10:43:00,
2011-02-25 03:53:00,35.2,23.5,29.84,ESE,112,0.0,0.0,62,0.00,,,0.00,open2300-1.11,2011-02-25 10:53:00,
2011-02-25 04:03:00,35.2,23.9,29.84,ESE,112,0.0,0.0,63,0.00,,,0.00,open2300-1.11,2011-02-25 11:03:00,
2011-02-25 04:13:00,35.1,24.1,29.84,ESE,112,0.0,0.0,64,0.00,,,0.00,open2300-1.11,2011-02-25 11:13:00,
2011-02-25 04:23:00,35.2,24.3,29.84,ESE,112,0.0,0.0,64,0.00,,,0.00,open2300-1.11,2011-02-25 11:23:00,
2011-02-25 04:33:00,35.1,24.1,29.84,ESE,112,0.0,0.0,64,0.00,,,0.00,open2300-1.11,2011-02-25 11:33:00,
2011-02-25 04:43:00,35.2,24.3,29.83,East,90,0.0,0.0,64,0.00,,,0.00,open2300-1.11,2011-02-25 11:43:00,
2011-02-25 04:53:00,35.4,23.7,29.83,West,270,5.8,5.8,62,0.00,,,0.00,open2300-1.11,2011-02-25 11:53:00,
2011-02-25 05:03:00,36.1,24.0,29.83,SE,135,0.0,5.8,61,0.00,,,0.00,open2300-1.11,2011-02-25 12:03:00,
2011-02-25 05:13:00,36.3,23.8,29.82,West,270,3.4,3.4,60,0.00,,,0.00,open2300-1.11,2011-02-25 12:13:00,
2011-02-25 05:23:00,36.3,24.2,29.83,WNW,292,0.0,3.4,61,0.00,,,0.00,open2300-1.11,2011-02-25 12:23:00,
2011-02-25 05:33:00,36.1,24.0,29.83,WNW,292,0.0,0.0,61,0.00,,,0.00,open2300-1.11,2011-02-25 12:33:00,
2011-02-25 05:43:00,36.0,23.9,29.83,NNW,337,0.0,0.0,61,0.00,,,0.00,open2300-1.11,2011-02-25 12:43:00,
2011-02-25 05:53:00,35.8,24.1,29.83,ENE,67,0.0,4.9,62,0.00,,,0.00,open2300-1.11,2011-02-25 12:53:00,
2011-02-25 06:03:00,35.8,24.4,29.83,East,90,4.0,4.0,63,0.00,,,0.00,open2300-1.11,2011-02-25 13:03:00,
2011-02-25 06:13:00,36.0,24.6,29.83,ESE,112,2.2,5.1,63,0.00,,,0.00,open2300-1.11,2011-02-25 13:13:00,
2011-02-25 06:23:00,36.1,24.8,29.83,East,90,0.0,3.8,63,0.00,,,0.00,open2300-1.11,2011-02-25 13:23:00,
2011-02-25 06:33:00,36.0,24.9,29.82,East,90,0.9,6.0,64,0.00,,,0.00,open2300-1.11,2011-02-25 13:33:00,
2011-02-25 06:43:00,36.0,24.9,29.81,East,90,0.0,3.4,64,0.00,,,0.00,open2300-1.11,2011-02-25 13:43:00,
2011-02-25 06:53:00,36.1,25.1,29.81,ENE,67,0.0,6.0,64,0.00,,,0.00,open2300-1.11,2011-02-25 13:53:00,
2011-02-25 07:03:00,36.0,24.9,29.81,NE,45,1.8,9.8,64,0.00,,,0.00,open2300-1.11,2011-02-25 14:03:00,
2011-02-25 07:13:00,36.1,25.1,29.81,East,90,5.6,7.6,64,0.00,,,0.00,open2300-1.11,2011-02-25 14:13:00,
2011-02-25 07:23:00,36.1,25.5,29.81,NNE,22,4.7,9.6,65,0.00,,,0.00,open2300-1.11,2011-02-25 14:23:00,
2011-02-25 07:33:00,36.1,25.5,29.81,NE,45,2.5,6.9,65,0.00,,,0.00,open2300-1.11,2011-02-25 14:33:00,
2011-02-25 07:43:00,36.3,25.7,29.81,ENE,67,5.6,5.6,65,0.00,,,0.00,open2300-1.11,2011-02-25 14:43:00,
2011-02-25 07:53:00,36.7,25.2,29.82,South,180,1.1,5.6,63,0.00,,,0.00,open2300-1.11,2011-02-25 14:53:00,
2011-02-25 08:03:00,36.7,25.2,29.82,ENE,67,3.6,4.7,63,0.00,,,0.00,open2300-1.11,2011-02-25 15:03:00,
2011-02-25 08:13:00,36.7,25.2,29.81,ENE,67,5.6,8.3,63,0.00,,,0.00,open2300-1.11,2011-02-25 15:13:00,
2011-02-25 08:23:00,36.9,25.4,29.81,ENE,67,6.5,6.5,63,0.00,,,0.00,open2300-1.11,2011-02-25 15:23:00,
2011-02-25 08:33:00,36.9,25.8,29.81,ENE,67,3.8,6.5,64,0.00,,,0.00,open2300-1.11,2011-02-25 15:33:00,
2011-02-25 08:43:00,37.0,25.6,29.81,ESE,112,6.0,6.0,63,0.00,,,0.00,open2300-1.11,2011-02-25 15:43:00,
2011-02-25 08:53:00,37.2,25.4,29.81,East,90,1.1,6.0,62,0.00,,,0.00,open2300-1.11,2011-02-25 15:53:00,
2011-02-25 09:03:00,37.2,25.4,29.81,ENE,67,5.1,6.0,62,0.00,,,0.00,open2300-1.11,2011-02-25 16:03:00,
2011-02-25 09:13:00,37.6,25.3,29.81,NNW,337,1.6,5.1,61,0.00,,,0.00,open2300-1.11,2011-02-25 16:13:00,
2011-02-25 09:23:00,37.9,26.0,29.81,West,270,0.0,1.6,62,0.00,,,0.00,open2300-1.11,2011-02-25 16:23:00,
2011-02-25 09:33:00,37.9,25.3,29.81,West,270,0.0,0.0,60,0.00,,,0.00,open2300-1.11,2011-02-25 16:33:00,
2011-02-25 09:43:00,37.9,25.7,29.82,West,270,0.0,0.0,61,0.00,,,0.00,open2300-1.11,2011-02-25 16:43:00,
2011-02-25 09:53:00,38.3,25.2,29.81,ENE,67,0.0,4.5,59,0.00,,,0.00,open2300-1.11,2011-02-25 16:53:00,
2011-02-25 10:03:00,38.8,25.7,29.80,ENE,67,0.0,0.0,59,0.00,,,0.00,open2300-1.11,2011-02-25 17:03:00,
2011-02-25 10:13:00,39.4,24.4,29.80,SE,135,1.3,3.8,55,0.00,,,0.00,open2300-1.11,2011-02-25 17:13:00,
2011-02-25 10:23:00,39.7,24.3,29.81,ESE,112,1.3,2.5,54,0.00,,,0.00,open2300-1.11,2011-02-25 17:23:00,
2011-02-25 10:33:00,39.9,24.1,29.80,SSW,202,1.6,1.6,53,0.00,,,0.00,open2300-1.11,2011-02-25 17:33:00,
2011-02-25 10:43:00,40.1,24.2,29.81,SE,135,1.1,4.2,53,0.00,,,0.00,open2300-1.11,2011-02-25 17:43:00,
2011-02-25 10:53:00,40.3,24.0,29.81,SSW,202,0.0,2.5,52,0.00,,,0.00,open2300-1.11,2011-02-25 17:53:00,
2011-02-25 11:03:00,40.3,24.4,29.81,SE,135,0.0,0.0,53,0.00,,,0.00,open2300-1.11,2011-02-25 18:03:00,
2011-02-25 11:13:00,40.5,24.1,29.81,SSE,157,2.9,2.9,52,0.00,,,0.00,open2300-1.11,2011-02-25 18:13:00,
2011-02-25 11:23:00,40.6,24.3,29.81,WNW,292,0.0,2.9,52,0.00,,,0.00,open2300-1.11,2011-02-25 18:23:00,
2011-02-25 11:33:00,40.8,24.4,29.80,WNW,292,0.0,0.0,52,0.00,,,0.00,open2300-1.11,2011-02-25 18:33:00,
2011-02-25 11:43:00,40.8,24.4,29.81,SSW,202,3.1,3.1,52,0.00,,,0.00,open2300-1.11,2011-02-25 18:43:00,
2011-02-25 11:53:00,41.0,24.2,29.80,West,270,0.0,6.0,51,0.00,,,0.00,open2300-1.11,2011-02-25 18:53:00,
2011-02-25 12:03:00,41.0,24.6,29.79,SE,135,0.0,0.0,52,0.00,,,0.00,open2300-1.11,2011-02-25 19:03:00,
2011-02-25 12:13:00,40.8,24.4,29.79,SW,225,0.4,4.9,52,0.00,,,0.00,open2300-1.11,2011-02-25 19:13:00,
2011-02-25 12:23:00,40.8,24.4,29.78,ESE,112,0.0,2.9,52,0.00,,,0.00,open2300-1.11,2011-02-25 19:23:00,
2011-02-25 12:33:00,40.8,24.9,29.78,East,90,0.0,0.0,53,0.00,,,0.00,open2300-1.11,2011-02-25 19:33:00,
2011-02-25 12:43:00,40.8,24.9,29.78,East,90,0.0,0.0,53,0.00,,,0.00,open2300-1.11,2011-02-25 19:43:00,
2011-02-25 12:53:00,40.8,25.3,29.78,East,90,0.0,0.0,54,0.00,,,0.00,open2300-1.11,2011-02-25 19:53:00,
2011-02-25 13:03:00,41.0,25.5,29.78,ENE,67,0.0,3.4,54,0.00,,,0.00,open2300-1.11,2011-02-25 20:03:00,
2011-02-25 13:13:00,41.0,25.5,29.77,ENE,67,2.5,2.9,54,0.00,,,0.00,open2300-1.11,2011-02-25 20:13:00,
2011-02-25 13:23:00,40.8,25.8,29.77,ENE,67,2.9,2.9,55,0.00,,,0.00,open2300-1.11,2011-02-25 20:23:00,
2011-02-25 13:33:00,40.8,26.2,29.77,ENE,67,0.0,2.9,56,0.00,,,0.00,open2300-1.11,2011-02-25 20:33:00,
2011-02-25 13:43:00,41.0,26.0,29.76,ESE,112,2.7,3.4,55,0.00,,,0.00,open2300-1.11,2011-02-25 20:43:00,
2011-02-25 13:53:00,40.8,26.2,29.76,East,90,1.8,5.1,56,0.00,,,0.00,open2300-1.11,2011-02-25 20:53:00,
2011-02-25 14:03:00,40.8,26.2,29.75,East,90,4.5,5.1,56,0.00,,,0.00,open2300-1.11,2011-02-25 21:03:00,
2011-02-25 14:13:00,40.8,26.2,29.75,East,90,6.0,6.9,56,0.00,,,0.00,open2300-1.11,2011-02-25 21:13:00,
2011-02-25 14:23:00,41.0,26.9,29.74,East,90,7.6,7.6,57,0.00,,,0.00,open2300-1.11,2011-02-25 21:23:00,
2011-02-25 14:33:00,41.4,27.6,29.74,East,90,4.2,8.7,58,0.00,,,0.00,open2300-1.11,2011-02-25 21:33:00,
2011-02-25 14:43:00,41.5,27.8,29.73,ESE,112,3.6,8.3,58,0.00,,,0.00,open2300-1.11,2011-02-25 21:43:00,
2011-02-25 14:53:00,41.5,27.4,29.72,ESE,112,1.8,8.3,57,0.00,,,0.00,open2300-1.11,2011-02-25 21:53:00,
2011-02-25 15:03:00,41.7,27.5,29.72,East,90,6.5,6.7,57,0.00,,,0.00,open2300-1.11,2011-02-25 22:03:00,
2011-02-25 15:13:00,42.1,27.9,29.72,East,90,7.6,7.6,57,0.00,,,0.00,open2300-1.11,2011-02-25 22:13:00,
2011-02-25 15:23:00,42.1,27.4,29.71,East,90,7.6,7.6,56,0.00,,,0.00,open2300-1.11,2011-02-25 22:23:00,
2011-02-25 15:33:00,42.1,27.9,29.71,East,90,4.7,7.6,57,0.00,,,0.00,open2300-1.11,2011-02-25 22:33:00,
2011-02-25 15:43:00,42.1,27.9,29.71,ENE,67,8.5,9.8,57,0.00,,,0.00,open2300-1.11,2011-02-25 22:43:00,
2011-02-25 15:53:00,42.4,28.2,29.70,East,90,8.7,9.6,57,0.00,,,0.00,open2300-1.11,2011-02-25 22:53:00,
2011-02-25 16:03:00,42.4,28.2,29.70,East,90,7.2,9.4,57,0.00,,,0.00,open2300-1.11,2011-02-25 23:03:00,
2011-02-25 16:13:00,42.4,27.8,29.70,East,90,7.8,14.3,56,0.00,,,0.00,open2300-1.11,2011-02-25 23:13:00,
2011-02-25 16:23:00,42.6,27.9,29.69,East,90,9.4,9.4,56,0.00,,,0.00,open2300-1.11,2011-02-25 23:23:00,
2011-02-25 16:33:00,42.6,27.9,29.69,East,90,8.1,11.0,56,0.00,,,0.00,open2300-1.11,2011-02-25 23:33:00,
2011-02-25 16:43:00,42.6,27.9,29.69,ENE,67,8.7,8.7,56,0.00,,,0.00,open2300-1.11,2011-02-25 23:43:00,
2011-02-25 16:53:00,42.6,27.9,29.68,NE,45,6.5,8.7,56,0.00,,,0.00,open2300-1.11,2011-02-25 23:53:00,
2011-02-25 17:03:00,42.6,28.4,29.68,East,90,6.3,6.5,57,0.00,,,0.00,open2300-1.11,2011-02-26 00:03:00,
2011-02-25 17:13:00,42.4,28.2,29.68,ENE,67,6.3,6.3,57,0.00,,,0.00,open2300-1.11,2011-02-26 00:13:00,
2011-02-25 17:23:00,42.6,27.9,29.68,NE,45,6.3,9.8,56,0.00,,,0.00,open2300-1.11,2011-02-26 00:23:00,
2011-02-25 17:33:00,42.6,27.9,29.68,East,90,4.0,6.3,56,0.00,,,0.00,open2300-1.11,2011-02-26 00:33:00,
2011-02-25 17:43:00,42.4,27.8,29.68,East,90,5.6,5.6,56,0.00,,,0.00,open2300-1.11,2011-02-26 00:43:00,
2011-02-25 17:53:00,42.4,27.8,29.67,East,90,6.0,8.3,56,0.00,,,0.00,open2300-1.11,2011-02-26 00:53:00,
2011-02-25 18:03:00,42.4,27.8,29.67,ENE,67,6.9,8.7,56,0.00,,,0.00,open2300-1.11,2011-02-26 01:03:00,
2011-02-25 18:13:00,42.4,27.8,29.67,East,90,8.1,8.1,56,0.00,,,0.00,open2300-1.11,2011-02-26 01:13:00,
2011-02-25 18:23:00,42.4,27.8,29.68,ENE,67,4.7,8.1,56,0.00,,,0.00,open2300-1.11,2011-02-26 01:23:00,
2011-02-25 18:33:00,42.1,27.9,29.68,NNE,22,5.6,8.1,57,0.00,,,0.00,open2300-1.11,2011-02-26 01:33:00,
2011-02-25 18:43:00,42.1,27.9,29.68,NE,45,5.8,7.4,57,0.00,,,0.00,open2300-1.11,2011-02-26 01:43:00,
2011-02-25 18:53:00,42.1,27.9,29.68,NE,45,6.3,6.3,57,0.00,,,0.00,open2300-1.11,2011-02-26 01:53:00,
2011-02-25 19:03:00,41.9,27.3,29.68,ENE,67,6.3,6.3,56,0.00,,,0.00,open2300-1.11,2011-02-26 02:03:00,
2011-02-25 19:13:00,42.1,27.4,29.68,ENE,67,4.0,6.3,56,0.00,,,0.00,open2300-1.11,2011-02-26 02:13:00,
2011-02-25 19:23:00,41.9,27.3,29.68,East,90,1.1,4.0,56,0.00,,,0.00,open2300-1.11,2011-02-26 02:23:00,
2011-02-25 19:33:00,42.1,27.0,29.68,ENE,67,0.0,1.3,55,0.00,,,0.00,open2300-1.11,2011-02-26 02:33:00,
2011-02-25 19:43:00,42.1,26.5,29.68,South,180,1.1,1.1,54,0.00,,,0.00,open2300-1.11,2011-02-26 02:43:00,
2011-02-25 19:53:00,41.9,25.5,29.68,SSW,202,0.0,1.1,52,0.00,,,0.00,open2300-1.11,2011-02-26 02:53:00,
2011-02-25 20:03:00,42.4,24.6,29.68,WNW,292,0.0,2.9,49,0.00,,,0.00,open2300-1.11,2011-02-26 03:03:00,
2011-02-25 20:13:00,43.0,23.5,29.68,SSW,202,1.6,4.2,46,0.00,,,0.00,open2300-1.11,2011-02-26 03:13:00,
2011-02-25 20:23:00,43.5,22.9,29.68,West,270,5.4,7.6,44,0.00,,,0.00,open2300-1.11,2011-02-26 03:23:00,
2011-02-25 20:33:00,43.7,23.1,29.68,WSW,247,0.0,5.4,44,0.00,,,0.00,open2300-1.11,2011-02-26 03:33:00,
2011-02-25 20:43:00,43.7,22.5,29.68,WSW,247,0.0,1.3,43,0.00,,,0.00,open2300-1.11,2011-02-26 03:43:00,
2011-02-25 20:53:00,43.7,22.0,29.68,WSW,247,0.0,3.4,42,0.00,,,0.00,open2300-1.11,2011-02-26 03:53:00,
2011-02-25 21:03:00,43.5,22.4,29.68,WSW,247,0.0,0.0,43,0.00,,,0.00,open2300-1.11,2011-02-26 04:03:00,
2011-02-25 21:13:00,43.3,22.2,29.68,WSW,247,0.0,0.0,43,0.00,,,0.00,open2300-1.11,2011-02-26 04:13:00,
2011-02-25 21:23:00,43.7,22.0,29.69,SW,225,0.0,2.9,42,0.00,,,0.00,open2300-1.11,2011-02-26 04:23:00,
2011-02-25 21:33:00,43.7,22.0,29.68,SSE,157,0.0,0.0,42,0.00,,,0.00,open2300-1.11,2011-02-26 04:33:00,
2011-02-25 21:43:00,44.4,22.1,29.68,SSE,157,0.0,4.2,41,0.00,,,0.00,open2300-1.11,2011-02-26 04:43:00,
2011-02-25 21:53:00,44.8,22.4,29.69,WSW,247,2.0,7.2,41,0.00,,,0.00,open2300-1.11,2011-02-26 04:53:00,
2011-02-25 22:03:00,45.0,22.6,29.69,WNW,292,5.1,5.4,41,0.00,,,0.00,open2300-1.11,2011-02-26 05:03:00,
2011-02-25 22:13:00,45.0,22.6,29.69,WSW,247,9.2,9.2,41,0.00,,,0.00,open2300-1.11,2011-02-26 05:13:00,
2011-02-25 22:23:00,45.0,22.1,29.68,SW,225,0.0,5.6,40,0.00,,,0.00,open2300-1.11,2011-02-26 05:23:00,
2011-02-25 22:33:00,45.0,22.1,29.68,WSW,247,0.0,7.8,40,0.00,,,0.00,open2300-1.11,2011-02-26 05:33:00,
2011-02-25 22:43:00,44.8,22.4,29.68,West,270,6.0,6.3,41,0.00,,,0.00,open2300-1.11,2011-02-26 05:43:00,
2011-02-25 22:53:00,44.8,21.9,29.69,WSW,247,6.5,7.4,40,0.00,,,0.00,open2300-1.11,2011-02-26 05:53:00,
2011-02-25 23:03:00,44.6,21.7,29.69,West,270,0.9,6.5,40,0.00,,,0.00,open2300-1.11,2011-02-26 06:03:00,
2011-02-25 23:13:00,44.4,20.9,29.69,WSW,247,3.4,5.4,39,0.00,,,0.00,open2300-1.11,2011-02-26 06:13:00,
2011-02-25 23:23:00,44.4,20.9,29.68,West,270,4.7,6.0,39,0.00,,,0.00,open2300-1.11,2011-02-26 06:23:00,
2011-02-25 23:33:00,44.4,20.2,29.69,South,180,5.1,5.1,38,0.00,,,0.00,open2300-1.11,2011-02-26 06:33:00,
2011-02-25 23:43:00,44.4,20.2,29.69,WSW,247,2.9,5.6,38,0.00,,,0.00,open2300-1.11,2011-02-26 06:43:00,
2011-02-25 23:53:00,44.2,20.1,29.68,West,270,2.7,9.8,38,0.00,,,0.00,open2300-1.11,2011-02-26 06:53:00,